{"data":{"norad_id":46278,"intl_designator":"2020-061G","name":"GHGSAT-C1","alt_names":[],"object_type":"PAYLOAD","status":"ACTIVE","operator":null,"country":"CA","launch_date":"2020-09-03","launch_site_code":"FRGUI","launch_vehicle":null,"mission":null,"orbit_class":"UNKNOWN","rcs_meters":null,"size_class":null,"mass_kg":null,"dimensions":null,"purposes":[],"wikipedia_slug":null,"has_3d_model":false,"image_url":null,"decayed_at":null,"tle_current":{"epoch":"2026-05-25T05:25:55.655904Z","epoch_age_seconds":66208,"freshness":"FRESH","line1":"1 46278U 20061G   26145.22633861  .00034248  00000+0  29068-3 0  9993","line2":"2 46278  97.2107 229.6238 0002717 121.9568 238.1959 15.69581734319870","mean_motion":15.69581734,"eccentricity":0.0002717,"inclination_deg":97.2107,"raan_deg":229.6238,"arg_perigee_deg":121.9568,"mean_anomaly_deg":238.1959,"bstar":0.00029068,"rev_number":31987,"period_min":91.744186926171,"perigee_km":358.2630462951,"apogee_km":361.92460092465,"semimajor_km":6738.2308236099,"source":"CELESTRAK","updated_at":"2026-05-25T13:37:56.290065Z"}}}